,,Stat5,,Stat1,,Stat2,,Stat3,,Stat4,,Wind1,,Wind1,
time,status,PA1M_AVG,status,PR1M_SUM,status,RH1M_AVG,status,SR1M_AVG,status,TA1M_AVG,status,W1dAve1m,status,W1sAve1m,
2000-12-17, 00:00:01,VALID,918.493,VALID,0.2,VALID,97.1989,VALID,0.0169808,VALID,19.7735,VALID,92,VALID,0.678819,
2000-12-17, 00:01:01,VALID,918.493,VALID,0,VALID,97.2447,VALID,0,VALID,19.7805,VALID,93,VALID,0.585478,
2000-12-17, 00:02:01,VALID,918.497,VALID,0,VALID,97.3871,VALID,0,VALID,19.7867,VALID,79,VALID,0.393581,
2000-12-17, 00:03:01,VALID,918.496,VALID,0,VALID,97.1557,VALID,0,VALID,19.7407,VALID,40,VALID,0.61258,
2000-12-17, 00:04:01,VALID,918.505,VALID,0,VALID,97.0018,VALID,0,VALID,19.7126,VALID,55,VALID,0.433594,
2000-12-17, 00:05:01,VALID,918.495,VALID,0,VALID,96.8034,VALID,0,VALID,19.6962,VALID,74,VALID,0.232767,
2000-12-17, 00:06:01,VALID,918.496,VALID,0,VALID,96.7882,VALID,0,VALID,19.6828,VALID,85,VALID,0.0996094,
2000-12-17, 00:07:01,VALID,918.49,VALID,0,VALID,96.7297,VALID,0,VALID,19.6699,VALID,84,VALID,0.0010016,
2000-12-17, 00:08:01,VALID,918.483,VALID,0,VALID,96.8098,VALID,0,VALID,19.6734,VALID,83,VALID,0,
2000-12-17, 00:09:01,VALID,918.471,VALID,0.2,VALID,96.6623,VALID,-0.0169808,VALID,19.6736,VALID,82,VALID,0,
2000-12-17, 00:10:01,VALID,918.472,VALID,0,VALID,96.6979,VALID,0,VALID,19.6836,VALID,82,VALID,0,
2000-12-17, 00:11:01,VALID,918.444,VALID,0,VALID,96.7844,VALID,0,VALID,19.6868,VALID,82,VALID,0,
2000-12-17, 00:12:01,VALID,918.445,VALID,0,VALID,96.7322,VALID,0.0339617,VALID,19.6868,VALID,82,VALID,0,
2000-12-17, 00:13:01,VALID,918.434,VALID,0,VALID,96.792,VALID,0,VALID,19.6766,VALID,72,VALID,0.428248,
2000-12-17, 00:14:01,VALID,918.416,VALID,0,VALID,96.7462,VALID,0,VALID,19.6739,VALID,71,VALID,0.415963,
2000-12-17, 00:15:01,VALID,918.416,VALID,0,VALID,96.8429,VALID,0,VALID,19.6706,VALID,29,VALID,0.401816,
2000-12-17, 00:16:01,VALID,918.412,VALID,0,VALID,97.1302,VALID,0,VALID,19.693,VALID,49,VALID,0.0160714,
2000-12-17, 00:17:01,VALID,918.4,VALID,0.2,VALID,97.3108,VALID,-0.0169808,VALID,19.7124,VALID,49,VALID,0,
2000-12-17, 00:18:00,VALID,918.38,VALID,0,VALID,97.4265,VALID,0,VALID,19.7256,VALID,49,VALID,0,
2000-12-17, 00:19:00,VALID,918.378,VALID,0,VALID,97.5015,VALID,0,VALID,19.732,VALID,49,VALID,0.0180921,
2000-12-17, 00:20:00,VALID,918.375,VALID,0,VALID,97.6058,VALID,-0.0169808,VALID,19.732,VALID,49,VALID,0,
2000-12-17, 00:21:00,VALID,918.372,VALID,0,VALID,97.7444,VALID,0.0169808,VALID,19.7574,VALID,49,VALID,0,
2000-12-17, 00:22:00,VALID,918.368,VALID,0,VALID,97.8322,VALID,0,VALID,19.7512,VALID,63,VALID,0.108974,
2000-12-17, 00:23:00,VALID,918.367,VALID,0,VALID,97.8856,VALID,0,VALID,19.7611,VALID,85,VALID,0.12138,
2000-12-17, 00:24:00,VALID,918.359,VALID,0,VALID,97.9059,VALID,0,VALID,19.7743,VALID,85,VALID,0.00195313,
2000-12-17, 00:25:00,VALID,918.343,VALID,0.2,VALID,98.0064,VALID,0,VALID,19.7606,VALID,85,VALID,0.0416667,
2000-12-17, 00:26:00,VALID,918.336,VALID,0,VALID,98.0941,VALID,0,VALID,19.7969,VALID,85,VALID,0,
2000-12-17, 00:27:00,VALID,918.337,VALID,0,VALID,98.1704,VALID,0,VALID,19.8168,VALID,86,VALID,0.197321,
2000-12-17, 00:28:00,VALID,918.31,VALID,0,VALID,98.2073,VALID,0,VALID,19.8061,VALID,107,VALID,0.0222039,
2000-12-17, 00:29:00,VALID,918.31,VALID,0,VALID,98.2442,VALID,0.0169808,VALID,19.8193,VALID,107,VALID,0,
2000-12-17, 00:30:00,VALID,918.294,VALID,0,VALID,98.2963,VALID,-0.0169808,VALID,19.8287,VALID,107,VALID,0.0112179,
2000-12-17, 00:31:00,VALID,918.295,VALID,0,VALID,98.3561,VALID,0.0169808,VALID,19.8647,VALID,107,VALID,0.0402344,
2000-12-17, 00:32:00,VALID,918.261,VALID,0,VALID,98.379,VALID,0.0169808,VALID,19.8772,VALID,104,VALID,0.196232,
2000-12-17, 00:33:00,VALID,918.269,VALID,0,VALID,98.3866,VALID,0,VALID,19.8809,VALID,100,VALID,0.704327,
2000-12-17, 00:34:00,VALID,918.237,VALID,0,VALID,98.3955,VALID,0.0169808,VALID,19.8737,VALID,99,VALID,0.714543,
2000-12-17, 00:35:00,VALID,918.212,VALID,0.2,VALID,98.4286,VALID,0,VALID,19.8903,VALID,97,VALID,0.680088,
2000-12-17, 00:36:00,VALID,918.211,VALID,0,VALID,98.4476,VALID,0,VALID,19.8933,VALID,98,VALID,0.427015,
2000-12-17, 00:37:00,VALID,918.199,VALID,0,VALID,98.4451,VALID,0.0169808,VALID,19.8938,VALID,98,VALID,0.130912,
2000-12-17, 00:38:00,VALID,918.183,VALID,0,VALID,98.4375,VALID,0.0169808,VALID,19.8839,VALID,99,VALID,0.203342,
2000-12-17, 00:39:00,VALID,918.162,VALID,0,VALID,98.4349,VALID,-0.0169808,VALID,19.871,VALID,99,VALID,0.14403,
2000-12-17, 00:40:00,VALID,918.155,VALID,0,VALID,98.4438,VALID,0.0169808,VALID,19.8742,VALID,98,VALID,0.130469,
2000-12-17, 00:41:00,VALID,918.142,VALID,0,VALID,98.4654,VALID,-0.0169808,VALID,19.8739,VALID,98,VALID,0.10016,
2000-12-17, 00:42:00,VALID,918.113,VALID,0,VALID,98.3853,VALID,0,VALID,19.8516,VALID,98,VALID,0.245793,
2000-12-17, 00:43:00,VALID,918.099,VALID,0,VALID,98.3751,VALID,0,VALID,19.8352,VALID,98,VALID,0.0766059,
2000-12-17, 00:44:00,VALID,918.075,VALID,0,VALID,98.3777,VALID,0,VALID,19.8419,VALID,73,VALID,0,
2000-12-17, 00:45:00,VALID,918.066,VALID,0,VALID,98.4286,VALID,-0.0169808,VALID,19.8513,VALID,73,VALID,0,
2000-12-17, 00:46:00,VALID,918.038,VALID,0,VALID,98.4565,VALID,0,VALID,19.8543,VALID,85,VALID,0.343133,
2000-12-17, 00:47:00,VALID,918.003,VALID,0,VALID,98.4667,VALID,0,VALID,19.8739,VALID,99,VALID,0.605152,
2000-12-17, 00:48:00,VALID,917.989,VALID,0,VALID,98.5048,VALID,0.0169808,VALID,19.8968,VALID,103,VALID,0.552154,
2000-12-17, 00:49:00,VALID,917.959,VALID,0.2,VALID,98.5392,VALID,0,VALID,19.906,VALID,104,VALID,0.334598,
2000-12-17, 00:50:00,VALID,917.943,VALID,0,VALID,98.5506,VALID,0,VALID,19.9291,VALID,104,VALID,0.14974,
2000-12-17, 00:51:00,VALID,917.931,VALID,0,VALID,98.5443,VALID,0,VALID,19.9227,VALID,104,VALID,0,
2000-12-17, 00:52:00,VALID,917.915,VALID,0,VALID,98.5532,VALID,0,VALID,19.9291,VALID,104,VALID,0.0575658,
2000-12-17, 00:53:00,VALID,917.901,VALID,0,VALID,98.5964,VALID,0.0169808,VALID,19.9584,VALID,102,VALID,0.338199,
2000-12-17, 00:54:00,VALID,917.872,VALID,0,VALID,98.5951,VALID,0,VALID,19.9522,VALID,97,VALID,0.404464,
2000-12-17, 00:55:00,VALID,917.858,VALID,0,VALID,98.5672,VALID,0,VALID,19.9318,VALID,95,VALID,0.486579,
2000-12-17, 00:56:00,VALID,917.857,VALID,0,VALID,98.5176,VALID,0,VALID,19.9254,VALID,103,VALID,0.394627,
2000-12-17, 00:57:00,VALID,917.838,VALID,0,VALID,98.515,VALID,0,VALID,19.9197,VALID,103,VALID,0.441602,
2000-12-17, 00:58:00,VALID,917.818,VALID,0,VALID,98.5201,VALID,0,VALID,19.9033,VALID,100,VALID,0.246962,
2000-12-17, 00:59:00,VALID,917.804,VALID,0,VALID,98.4718,VALID,0,VALID,19.8772,VALID,100,VALID,0.199002,
2000-12-17, 01:00:00,VALID,917.79,VALID,0,VALID,98.4603,VALID,-0.0169808,VALID,19.8742,VALID,101,VALID,0.421429,
2000-12-17, 01:01:00,VALID,917.776,VALID,0,VALID,98.4375,VALID,0,VALID,19.858,VALID,88,VALID,0.466283,
2000-12-17, 01:02:00,VALID,917.744,VALID,0,VALID,98.3497,VALID,0.0339617,VALID,19.8158,VALID,93,VALID,0.394003,
2000-12-17, 01:03:00,VALID,917.729,VALID,0,VALID,98.3637,VALID,0,VALID,19.7929,VALID,91,VALID,0.437099,
2000-12-17, 01:04:00,VALID,917.718,VALID,0,VALID,98.3497,VALID,0,VALID,19.7837,VALID,98,VALID,0.549609,
2000-12-17, 01:05:00,VALID,917.692,VALID,0,VALID,98.3624,VALID,0.0169808,VALID,19.7867,VALID,77,VALID,0.473346,
2000-12-17, 01:06:00,VALID,917.682,VALID,0,VALID,98.3268,VALID,-0.0169808,VALID,19.7611,VALID,90,VALID,0.51903,
2000-12-17, 01:07:00,VALID,917.659,VALID,0,VALID,98.3523,VALID,0,VALID,19.7676,VALID,100,VALID,0.527444,
2000-12-17, 01:08:00,VALID,917.635,VALID,0,VALID,98.3306,VALID,0,VALID,19.7517,VALID,100,VALID,0.595753,
2000-12-17, 01:09:00,VALID,917.615,VALID,0,VALID,98.2683,VALID,0.0169808,VALID,19.7189,VALID,99,VALID,0.501234,
2000-12-17, 01:10:00,VALID,917.604,VALID,0,VALID,98.276,VALID,0,VALID,19.7094,VALID,97,VALID,0.327914,
2000-12-17, 01:11:00,VALID,917.582,VALID,0,VALID,98.2442,VALID,0,VALID,19.6736,VALID,68,VALID,0.463759,
2000-12-17, 01:12:00,VALID,917.574,VALID,0,VALID,98.1831,VALID,0,VALID,19.6381,VALID,63,VALID,0.133614,
2000-12-17, 01:13:00,VALID,917.559,VALID,0,VALID,98.1615,VALID,0,VALID,19.6316,VALID,84,VALID,0.326367,
2000-12-17, 01:14:00,VALID,917.539,VALID,0,VALID,98.1895,VALID,0.0169808,VALID,19.6286,VALID,90,VALID,0.647636,
2000-12-17, 01:15:00,VALID,917.517,VALID,0,VALID,98.2315,VALID,0,VALID,19.6316,VALID,99,VALID,0.664063,
2000-12-17, 01:16:00,VALID,917.5,VALID,0,VALID,98.2887,VALID,0,VALID,19.6473,VALID,91,VALID,0.413194,
2000-12-17, 01:17:00,VALID,917.499,VALID,0,VALID,98.276,VALID,0.0169808,VALID,19.6545,VALID,84,VALID,0.317229,
2000-12-17, 01:18:00,VALID,917.495,VALID,0,VALID,98.2747,VALID,0.0169808,VALID,19.6612,VALID,88,VALID,0.427426,
2000-12-17, 01:19:00,VALID,917.477,VALID,0,VALID,98.192,VALID,0.0169808,VALID,19.6381,VALID,78,VALID,0.507607,
2000-12-17, 01:20:00,VALID,917.479,VALID,0,VALID,98.1119,VALID,-0.0169808,VALID,19.6192,VALID,82,VALID,0.777449,
2000-12-17, 01:21:00,VALID,917.453,VALID,0.2,VALID,98.103,VALID,0,VALID,19.6187,VALID,91,VALID,0.835304,
2000-12-17, 01:22:00,VALID,917.453,VALID,0,VALID,98.1094,VALID,0,VALID,19.6286,VALID,97,VALID,0.63817,
2000-12-17, 01:23:00,VALID,917.453,VALID,0,VALID,98.1043,VALID,0.0169808,VALID,19.6321,VALID,97,VALID,0.354818,
2000-12-17, 01:24:00,VALID,917.457,VALID,0,VALID,98.1742,VALID,-0.0169808,VALID,19.6515,VALID,93,VALID,0,
2000-12-17, 01:25:00,VALID,917.443,VALID,0,VALID,98.1412,VALID,-0.0169808,VALID,19.6552,VALID,89,VALID,0.42023,
2000-12-17, 01:26:00,VALID,917.436,VALID,0,VALID,98.0585,VALID,0,VALID,19.6321,VALID,76,VALID,0.619655,
2000-12-17, 01:27:00,VALID,917.433,VALID,0,VALID,98.0458,VALID,0,VALID,19.6252,VALID,110,VALID,0.498661,
2000-12-17, 01:28:00,VALID,917.415,VALID,0,VALID,98.0293,VALID,0,VALID,19.6351,VALID,80,VALID,0.290865,
2000-12-17, 01:29:00,VALID,917.409,VALID,0,VALID,97.9441,VALID,0,VALID,19.6254,VALID,83,VALID,0.404916,
2000-12-17, 01:30:00,VALID,917.406,VALID,0,VALID,97.8322,VALID,0,VALID,19.6065,VALID,62,VALID,0.466797,
2000-12-17, 01:31:00,VALID,917.386,VALID,0,VALID,97.7571,VALID,0,VALID,19.5904,VALID,56,VALID,0.340929,
2000-12-17, 01:32:00,VALID,917.374,VALID,0,VALID,97.6986,VALID,0,VALID,19.5933,VALID,52,VALID,0.455295,
2000-12-17, 01:33:00,VALID,917.371,VALID,0,VALID,97.6122,VALID,0,VALID,19.5837,VALID,50,VALID,0.325893,
2000-12-17, 01:34:00,VALID,917.353,VALID,0,VALID,97.6796,VALID,-0.0339617,VALID,19.614,VALID,50,VALID,0.206414,
2000-12-17, 01:35:00,VALID,917.336,VALID,0,VALID,97.7241,VALID,-0.0169808,VALID,19.5933,VALID,74,VALID,0.0380068,
2000-12-17, 01:36:00,VALID,917.33,VALID,0,VALID,97.7432,VALID,0.0169808,VALID,19.6035,VALID,80,VALID,0,
2000-12-17, 01:37:00,VALID,917.322,VALID,0,VALID,97.8169,VALID,0,VALID,19.6095,VALID,86,VALID,0,
2000-12-17, 01:38:00,VALID,917.328,VALID,0,VALID,97.8627,VALID,-0.0169808,VALID,19.6194,VALID,102,VALID,0,
2000-12-17, 01:39:00,VALID,917.319,VALID,0,VALID,97.8309,VALID,0,VALID,19.5963,VALID,102,VALID,0,
2000-12-17, 01:40:00,VALID,917.319,VALID,0,VALID,97.7864,VALID,0.0169808,VALID,19.5772,VALID,102,VALID,0,
2000-12-17, 01:41:00,VALID,917.315,VALID,0,VALID,97.7978,VALID,0,VALID,19.5839,VALID,102,VALID,0,
2000-12-17, 01:42:00,VALID,917.304,VALID,0,VALID,97.7559,VALID,0,VALID,19.5613,VALID,102,VALID,0,
2000-12-17, 01:43:00,VALID,917.301,VALID,0,VALID,97.691,VALID,0,VALID,19.5518,VALID,102,VALID,0,
2000-12-17, 01:44:00,VALID,917.293,VALID,0,VALID,97.6834,VALID,0.0169808,VALID,19.5581,VALID,102,VALID,0,
2000-12-17, 01:45:00,VALID,917.284,VALID,0,VALID,97.6096,VALID,-0.0169808,VALID,19.5414,VALID,64,VALID,0,
2000-12-17, 01:46:00,VALID,917.268,VALID,0,VALID,97.4418,VALID,0,VALID,19.5451,VALID,57,VALID,0,
2000-12-17, 01:47:00,VALID,917.245,VALID,0,VALID,97.4164,VALID,0,VALID,19.574,VALID,71,VALID,0,
2000-12-17, 01:48:00,VALID,917.242,VALID,0,VALID,97.3032,VALID,-0.0169808,VALID,19.5809,VALID,69,VALID,0,
2000-12-17, 01:49:00,VALID,917.234,VALID,0,VALID,97.1353,VALID,0,VALID,19.5677,VALID,69,VALID,0.0130208,
2000-12-17, 01:50:00,VALID,917.221,VALID,0,VALID,97.0527,VALID,-0.0169808,VALID,19.5745,VALID,85,VALID,0.0450247,
2000-12-17, 01:51:00,VALID,917.219,VALID,0,VALID,96.8365,VALID,0,VALID,19.5804,VALID,63,VALID,0,
2000-12-17, 01:52:00,VALID,917.236,VALID,0,VALID,96.6941,VALID,0,VALID,19.5707,VALID,63,VALID,0,
2000-12-17, 01:53:00,VALID,917.214,VALID,0,VALID,96.6788,VALID,0,VALID,19.574,VALID,63,VALID,0,
2000-12-17, 01:54:00,VALID,917.223,VALID,0,VALID,96.7195,VALID,-0.0169808,VALID,19.5812,VALID,83,VALID,0,
2000-12-17, 01:55:00,VALID,917.206,VALID,0,VALID,96.8683,VALID,-0.0169808,VALID,19.5841,VALID,90,VALID,0,
2000-12-17, 01:56:00,VALID,917.2,VALID,0,VALID,97.0412,VALID,0.0169808,VALID,19.5941,VALID,91,VALID,0,
2000-12-17, 01:57:00,VALID,917.192,VALID,0,VALID,97.2256,VALID,0,VALID,19.6127,VALID,93,VALID,0,
2000-12-17, 01:58:00,VALID,917.197,VALID,0,VALID,97.2142,VALID,0,VALID,19.5906,VALID,93,VALID,0,
2000-12-17, 01:59:00,VALID,917.191,VALID,0,VALID,97.0857,VALID,-0.0339617,VALID,19.5489,VALID,93,VALID,0,
2000-12-17, 02:00:00,VALID,917.198,VALID,0,VALID,96.853,VALID,0,VALID,19.5093,VALID,93,VALID,0,
2000-12-17, 02:01:00,VALID,917.195,VALID,0,VALID,96.8378,VALID,0,VALID,19.4711,VALID,91,VALID,0,
2000-12-17, 02:02:00,VALID,917.198,VALID,0,VALID,96.8111,VALID,0,VALID,19.4584,VALID,72,VALID,0.44112,
2000-12-17, 02:03:00,VALID,917.197,VALID,0,VALID,96.8263,VALID,-0.0169808,VALID,19.4417,VALID,81,VALID,0.56582,
2000-12-17, 02:04:00,VALID,917.198,VALID,0,VALID,96.6826,VALID,0,VALID,19.4388,VALID,73,VALID,0.757595,
2000-12-17, 02:05:00,VALID,917.188,VALID,0,VALID,96.6776,VALID,-0.0679233,VALID,19.4524,VALID,80,VALID,0.667318,
2000-12-17, 02:06:00,VALID,917.18,VALID,0,VALID,96.6559,VALID,-0.0339617,VALID,19.4296,VALID,80,VALID,0.661384,
2000-12-17, 02:07:00,VALID,917.181,VALID,0,VALID,96.75,VALID,-0.0509425,VALID,19.433,VALID,78,VALID,0.680304,
2000-12-17, 02:08:00,VALID,917.173,VALID,0,VALID,96.7958,VALID,-0.0679233,VALID,19.4037,VALID,66,VALID,0.662796,
2000-12-17, 02:09:00,VALID,917.17,VALID,0,VALID,96.8301,VALID,-0.0509425,VALID,19.3776,VALID,64,VALID,0.694912,
2000-12-17, 02:10:00,VALID,917.169,VALID,0,VALID,96.8454,VALID,-0.0169808,VALID,19.3647,VALID,75,VALID,0.566211,
2000-12-17, 02:11:00,VALID,917.161,VALID,0,VALID,96.8543,VALID,-0.0509425,VALID,19.3518,VALID,78,VALID,0.755285,
2000-12-17, 02:12:00,VALID,917.158,VALID,0,VALID,96.8429,VALID,-0.0339617,VALID,19.3356,VALID,74,VALID,0.599559,
2000-12-17, 02:13:00,VALID,917.164,VALID,0,VALID,96.8797,VALID,-0.0169808,VALID,19.3423,VALID,74,VALID,0.500601,
2000-12-17, 02:14:00,VALID,917.157,VALID,0,VALID,96.8874,VALID,-0.0509425,VALID,19.3292,VALID,71,VALID,0.482572,
2000-12-17, 02:15:00,VALID,917.161,VALID,0,VALID,96.9929,VALID,-0.0169808,VALID,19.3393,VALID,84,VALID,0.628084,
2000-12-17, 02:16:00,VALID,917.156,VALID,0,VALID,97.087,VALID,-0.0169808,VALID,19.3297,VALID,85,VALID,0.590794,
2000-12-17, 02:17:00,VALID,917.162,VALID,0,VALID,97.1455,VALID,-0.0339617,VALID,19.2936,VALID,67,VALID,0.490451,
2000-12-17, 02:18:00,VALID,917.16,VALID,0,VALID,97.2142,VALID,0,VALID,19.2941,VALID,90,VALID,0.546074,
2000-12-17, 02:19:00,VALID,917.168,VALID,0,VALID,97.335,VALID,-0.0679233,VALID,19.2802,VALID,84,VALID,0.39082,
2000-12-17, 02:20:00,VALID,917.166,VALID,0,VALID,97.4456,VALID,0,VALID,19.2842,VALID,105,VALID,0.390224,
2000-12-17, 02:21:00,VALID,917.153,VALID,0,VALID,97.499,VALID,0,VALID,19.2675,VALID,101,VALID,0.421675,
2000-12-17, 02:22:00,VALID,917.159,VALID,0,VALID,97.6376,VALID,0,VALID,19.2772,VALID,95,VALID,0.42296,
2000-12-17, 02:23:00,VALID,917.142,VALID,0,VALID,97.6465,VALID,-0.0169808,VALID,19.2613,VALID,86,VALID,0.0534539,
2000-12-17, 02:24:00,VALID,917.146,VALID,0,VALID,97.6605,VALID,0,VALID,19.2482,VALID,86,VALID,0,
2000-12-17, 02:25:00,VALID,917.149,VALID,0,VALID,97.6732,VALID,0,VALID,19.2253,VALID,86,VALID,0,
2000-12-17, 02:26:00,VALID,917.148,VALID,0,VALID,97.7343,VALID,0,VALID,19.2419,VALID,86,VALID,0,
2000-12-17, 02:27:00,VALID,917.133,VALID,0,VALID,97.7025,VALID,0.0169808,VALID,19.2255,VALID,86,VALID,0,
2000-12-17, 02:28:00,VALID,917.136,VALID,0,VALID,97.7597,VALID,0.0169808,VALID,19.2516,VALID,86,VALID,0,
2000-12-17, 02:29:00,VALID,917.151,VALID,0,VALID,97.8373,VALID,0.0169808,VALID,19.2708,VALID,86,VALID,0,
2000-12-17, 02:30:00,VALID,917.144,VALID,0,VALID,97.9008,VALID,0,VALID,19.2673,VALID,88,VALID,0,
2000-12-17, 02:31:00,VALID,917.141,VALID,0,VALID,97.967,VALID,0,VALID,19.277,VALID,137,VALID,0,
2000-12-17, 02:32:00,VALID,917.146,VALID,0,VALID,97.9822,VALID,0,VALID,19.2805,VALID,138,VALID,0,
2000-12-17, 02:33:00,VALID,917.154,VALID,0,VALID,97.967,VALID,0,VALID,19.2742,VALID,156,VALID,0,
2000-12-17, 02:34:00,VALID,917.161,VALID,0,VALID,97.9085,VALID,0.0509425,VALID,19.2479,VALID,156,VALID,0,
2000-12-17, 02:35:00,VALID,917.167,VALID,0,VALID,97.9415,VALID,0,VALID,19.2382,VALID,156,VALID,0,
2000-12-17, 02:36:00,VALID,917.172,VALID,0,VALID,97.9898,VALID,0.0169808,VALID,19.2576,VALID,156,VALID,0,
2000-12-17, 02:37:00,VALID,917.174,VALID,0,VALID,97.9797,VALID,0,VALID,19.2613,VALID,156,VALID,0,
2000-12-17, 02:38:00,VALID,917.165,VALID,0,VALID,97.9021,VALID,0,VALID,19.2387,VALID,156,VALID,0,
2000-12-17, 02:39:00,VALID,917.167,VALID,0,VALID,97.8449,VALID,0,VALID,19.2248,VALID,152,VALID,0.0279018,
2000-12-17, 02:40:00,VALID,917.177,VALID,0,VALID,97.8665,VALID,0.0169808,VALID,19.2452,VALID,141,VALID,0.0795641,
2000-12-17, 02:41:00,VALID,917.189,VALID,0,VALID,97.8932,VALID,0,VALID,19.2479,VALID,141,VALID,0,
2000-12-17, 02:42:00,VALID,917.188,VALID,0,VALID,97.8067,VALID,-0.0169808,VALID,19.2188,VALID,141,VALID,0,
2000-12-17, 02:43:00,VALID,917.187,VALID,0,VALID,97.7749,VALID,0.0169808,VALID,19.1833,VALID,141,VALID,0,
2000-12-17, 02:44:00,VALID,917.194,VALID,0,VALID,97.7851,VALID,0.0169808,VALID,19.1801,VALID,141,VALID,0,
2000-12-17, 02:45:00,VALID,917.199,VALID,0,VALID,97.836,VALID,-0.0169808,VALID,19.1838,VALID,141,VALID,0.0210337,
2000-12-17, 02:46:00,VALID,917.2,VALID,0,VALID,97.9136,VALID,0,VALID,19.1935,VALID,141,VALID,0,
2000-12-17, 02:47:00,VALID,917.191,VALID,0,VALID,97.9708,VALID,0,VALID,19.2029,VALID,140,VALID,0,
2000-12-17, 02:48:00,VALID,917.194,VALID,0,VALID,98.0483,VALID,0.0169808,VALID,19.2094,VALID,140,VALID,0,
2000-12-17, 02:49:00,VALID,917.203,VALID,0,VALID,98.0712,VALID,0,VALID,19.2059,VALID,140,VALID,0,
2000-12-17, 02:50:00,VALID,917.199,VALID,0,VALID,98.0789,VALID,0,VALID,19.2034,VALID,140,VALID,0,
2000-12-17, 02:51:00,VALID,917.2,VALID,0,VALID,98.0941,VALID,0,VALID,19.2004,VALID,140,VALID,0,
2000-12-17, 02:52:00,VALID,917.199,VALID,0,VALID,98.0712,VALID,0.0339617,VALID,19.1706,VALID,139,VALID,0,
2000-12-17, 02:53:00,VALID,917.198,VALID,0,VALID,98.0293,VALID,0,VALID,19.1584,VALID,136,VALID,0,
2000-12-17, 02:54:00,VALID,917.184,VALID,0,VALID,98.0369,VALID,0,VALID,19.1286,VALID,135,VALID,0,
2000-12-17, 02:55:00,VALID,917.182,VALID,0,VALID,98.1005,VALID,0.0169808,VALID,19.1185,VALID,135,VALID,0,
2000-12-17, 02:56:00,VALID,917.176,VALID,0,VALID,98.089,VALID,0,VALID,19.1256,VALID,135,VALID,0,
2000-12-17, 02:57:00,VALID,917.159,VALID,0,VALID,98.1335,VALID,0,VALID,19.0996,VALID,135,VALID,0,
2000-12-17, 02:58:00,VALID,917.141,VALID,0,VALID,98.1908,VALID,0.0169808,VALID,19.1164,VALID,135,VALID,0,
2000-12-17, 02:59:00,VALID,917.13,VALID,0,VALID,98.2289,VALID,-0.0339617,VALID,19.1063,VALID,135,VALID,0,
2000-12-17, 03:00:00,VALID,917.125,VALID,0,VALID,98.2569,VALID,0.0169808,VALID,19.103,VALID,135,VALID,0,
2000-12-17, 03:01:00,VALID,917.108,VALID,0,VALID,98.2467,VALID,0.0169808,VALID,19.0836,VALID,135,VALID,0,
2000-12-17, 03:02:00,VALID,917.101,VALID,0,VALID,98.2658,VALID,0,VALID,19.0573,VALID,135,VALID,0,
2000-12-17, 03:03:00,VALID,917.085,VALID,0,VALID,98.3535,VALID,0,VALID,19.0742,VALID,135,VALID,0.376803,
2000-12-17, 03:04:00,VALID,917.084,VALID,0,VALID,98.3777,VALID,0,VALID,19.0675,VALID,135,VALID,0.450452,
2000-12-17, 03:05:00,VALID,917.06,VALID,0,VALID,98.4273,VALID,0,VALID,19.0707,VALID,135,VALID,0.424753,
2000-12-17, 03:06:00,VALID,917.057,VALID,0,VALID,98.4642,VALID,0.0339617,VALID,19.0638,VALID,135,VALID,0.362277,
2000-12-17, 03:07:00,VALID,917.058,VALID,0,VALID,98.4553,VALID,0,VALID,19.0483,VALID,135,VALID,0.356771,
2000-12-17, 03:08:00,VALID,917.039,VALID,0,VALID,98.4642,VALID,0,VALID,19.0416,VALID,135,VALID,0.242378,
2000-12-17, 03:09:00,VALID,917.026,VALID,0,VALID,98.5048,VALID,0.0169808,VALID,19.0379,VALID,135,VALID,0.00976563,
2000-12-17, 03:10:00,VALID,917.009,VALID,0,VALID,98.4362,VALID,0.0339617,VALID,19.019,VALID,135,VALID,0,
2000-12-17, 03:11:00,VALID,916.989,VALID,0,VALID,98.454,VALID,0.0509425,VALID,19.0158,VALID,135,VALID,0,
2000-12-17, 03:12:00,VALID,916.966,VALID,0,VALID,98.4565,VALID,0,VALID,19.0349,VALID,135,VALID,0,
2000-12-17, 03:13:00,VALID,916.958,VALID,0,VALID,98.4298,VALID,0.0169808,VALID,19.0317,VALID,135,VALID,0,
2000-12-17, 03:14:00,VALID,916.939,VALID,0,VALID,98.3739,VALID,0,VALID,19.0223,VALID,161,VALID,0,
2000-12-17, 03:15:00,VALID,916.919,VALID,0,VALID,98.3929,VALID,0.0169808,VALID,19.0255,VALID,179,VALID,0,
2000-12-17, 03:16:00,VALID,916.913,VALID,0,VALID,98.3866,VALID,0.0169808,VALID,19.0223,VALID,179,VALID,0,
2000-12-17, 03:17:00,VALID,916.909,VALID,0,VALID,98.3523,VALID,0,VALID,19.0126,VALID,182,VALID,0.124081,
2000-12-17, 03:18:00,VALID,916.894,VALID,0,VALID,98.22,VALID,0,VALID,18.9835,VALID,187,VALID,0.153045,
2000-12-17, 03:19:00,VALID,916.894,VALID,0,VALID,98.1424,VALID,-0.0169808,VALID,18.9512,VALID,187,VALID,0.176482,
2000-12-17, 03:20:00,VALID,916.887,VALID,0,VALID,98.0331,VALID,-0.0679233,VALID,18.936,VALID,185,VALID,0.342548,
2000-12-17, 03:21:00,VALID,916.886,VALID,0,VALID,97.9682,VALID,-0.0169808,VALID,18.9161,VALID,180,VALID,0.381373,
2000-12-17, 03:22:00,VALID,916.888,VALID,0,VALID,98.0471,VALID,0,VALID,18.9457,VALID,170,VALID,0.454603,
2000-12-17, 03:23:00,VALID,916.88,VALID,0,VALID,98.0611,VALID,-0.0339617,VALID,18.9584,VALID,162,VALID,0.435113,
2000-12-17, 03:24:00,VALID,916.888,VALID,0,VALID,98.0661,VALID,-0.0339617,VALID,18.9581,VALID,161,VALID,0.325521,
2000-12-17, 03:25:00,VALID,916.891,VALID,0,VALID,98.0839,VALID,-0.0169808,VALID,18.9579,VALID,161,VALID,0.0771484,
2000-12-17, 03:26:00,VALID,916.9,VALID,0,VALID,98.1005,VALID,-0.0339617,VALID,18.9581,VALID,161,VALID,0,
2000-12-17, 03:27:00,VALID,916.89,VALID,0,VALID,98.103,VALID,-0.0509425,VALID,18.9616,VALID,161,VALID,0,
2000-12-17, 03:28:00,VALID,916.885,VALID,0,VALID,98.1145,VALID,-0.0339617,VALID,18.9455,VALID,161,VALID,0,
2000-12-17, 03:29:00,VALID,916.884,VALID,0,VALID,98.1374,VALID,-0.0509425,VALID,18.9392,VALID,160,VALID,0,
2000-12-17, 03:30:00,VALID,916.87,VALID,0,VALID,98.1246,VALID,-0.0509425,VALID,18.9196,VALID,160,VALID,0,
2000-12-17, 03:31:00,VALID,916.872,VALID,0,VALID,98.1005,VALID,-0.0339617,VALID,18.8938,VALID,160,VALID,0,
2000-12-17, 03:32:00,VALID,916.861,VALID,0,VALID,98.1475,VALID,-0.0339617,VALID,18.9037,VALID,159,VALID,0,
2000-12-17, 03:33:00,VALID,916.859,VALID,0,VALID,98.1564,VALID,-0.0339617,VALID,18.9005,VALID,158,VALID,0,
2000-12-17, 03:34:00,VALID,916.862,VALID,0,VALID,98.1552,VALID,0,VALID,18.8938,VALID,158,VALID,0,
2000-12-17, 03:35:00,VALID,916.866,VALID,0,VALID,98.131,VALID,-0.0509425,VALID,18.8741,VALID,158,VALID,0,
2000-12-17, 03:36:00,VALID,916.855,VALID,0,VALID,98.089,VALID,-0.0169808,VALID,18.8749,VALID,158,VALID,0,
2000-12-17, 03:37:00,VALID,916.857,VALID,0,VALID,98.131,VALID,-0.0339617,VALID,18.8615,VALID,158,VALID,0,
2000-12-17, 03:38:00,VALID,916.864,VALID,0,VALID,98.1577,VALID,-0.0339617,VALID,18.8649,VALID,158,VALID,0,
2000-12-17, 03:39:00,VALID,916.864,VALID,0,VALID,98.1806,VALID,-0.0169808,VALID,18.8585,VALID,158,VALID,0,
2000-12-17, 03:40:00,VALID,916.865,VALID,0,VALID,98.2035,VALID,-0.0169808,VALID,18.8589,VALID,158,VALID,0,
2000-12-17, 03:41:00,VALID,916.861,VALID,0,VALID,98.2467,VALID,0,VALID,18.8485,VALID,158,VALID,0,
2000-12-17, 03:42:00,VALID,916.86,VALID,0,VALID,98.2696,VALID,0.0169808,VALID,18.8416,VALID,158,VALID,0,
2000-12-17, 03:43:00,VALID,916.853,VALID,0,VALID,98.234,VALID,0,VALID,18.8259,VALID,158,VALID,0,